This is the latest recevied weather packets stored in our database for station/object OK1JIL-13. If no packets are shown the sender has not sent any weather packets the latest 10 day(s).
| Time | Temp. | Humidity | Pressure | Rain* | Wind** | Luminosity | Snow |
|---|---|---|---|---|---|---|---|
| 1777490592 | 1.67° C | 40% | 1027.8 hPa | - | - | - | - |
| 1777489992 | 1.67° C | 39% | 1027.8 hPa | - | - | - | - |
| 1777489392 | 1.11° C | 40% | 1027.6 hPa | - | - | - | - |
| 1777488792 | 1.67° C | 39% | 1027.5 hPa | - | - | - | - |
| 1777488192 | 1.67° C | 40% | 1027.4 hPa | - | - | - | - |
| 1777487592 | 1.67° C | 38% | 1027.1 hPa | - | - | - | - |
| 1777486992 | 1.67° C | 38% | 1027.1 hPa | - | - | - | - |
| 1777486392 | 2.22° C | 37% | 1027.1 hPa | - | - | - | - |
| 1777485792 | 2.22° C | 37% | 1027 hPa | - | - | - | - |
| 1777485192 | 2.22° C | 37% | 1027 hPa | - | - | - | - |
| 1777484592 | 2.22° C | 35% | 1026.9 hPa | - | - | - | - |
| 1777483992 | 2.22° C | 36% | 1026.7 hPa | - | - | - | - |
| 1777483392 | 2.22° C | 37% | 1026.7 hPa | - | - | - | - |
| 1777482792 | 2.78° C | 35% | 1026.8 hPa | - | - | - | - |
| 1777482192 | 2.78° C | 35% | 1026.6 hPa | - | - | - | - |
| 1777481592 | 2.78° C | 34% | 1026.3 hPa | - | - | - | - |
| 1777480992 | 3.33° C | 34% | 1026.5 hPa | - | - | - | - |
| 1777480392 | 3.33° C | 35% | 1026.4 hPa | - | - | - | - |
| 1777479792 | 2.78° C | 35% | 1026.4 hPa | - | - | - | - |
| 1777479192 | 2.78° C | 35% | 1026.3 hPa | - | - | - | - |
| 1777477992 | 3.33° C | 33% | 1026.2 hPa | - | - | - | - |
| 1777477392 | 4.44° C | 34% | 1026.1 hPa | - | - | - | - |
| 1777476792 | 3.33° C | 34% | 1026 hPa | - | - | - | - |
| 1777476192 | 4.44° C | 31% | 1026 hPa | - | - | - | - |
| 1777475592 | 4.44° C | 30% | 1026.1 hPa | - | - | - | - |
* Rain since midnight (hover to see other rain measurements)
** Current wind speed in m/s (hover to see current wind gust speed)